| time (UTC) | temp F | wind direction | speed MPH | gust MPH | rain 1hr in | rain 24hr in | rain mn in | humidity % | barometer mb |
| 20260903180759 | 95 | 105 | 3.0 | 11.0 | 0.00 | 0.00 | 0.00 | 48 | 1008.8 |
| 20260903175258 | 94 | 143 | 0.0 | 11.0 | 0.00 | 0.00 | 0.00 | 49 | 1009.0 |
| 20260903173757 | 93 | 206 | 0.0 | 11.0 | 0.00 | 0.00 | 0.00 | 50 | 1009.3 |
| 20260903172256 | 93 | 163 | 4.0 | 11.0 | 0.00 | 0.00 | 0.00 | 51 | 1009.5 |
| 20260903170755 | 92 | 184 | 0.0 | 10.0 | 0.00 | 0.00 | 0.00 | 53 | 1009.6 |
| 20260903165254 | 91 | 158 | 7.0 | 13.0 | 0.00 | 0.00 | 0.00 | 54 | 1009.9 |
| 20260903163754 | 90 | 200 | 6.0 | 11.0 | 0.00 | 0.00 | 0.00 | 56 | 1009.9 |
| 20260903162252 | 90 | 152 | 6.0 | 11.0 | 0.00 | 0.00 | 0.00 | 56 | 1009.9 |
| 20260903160752 | 89 | 143 | 2.0 | 9.0 | 0.00 | 0.00 | 0.00 | 57 | 1010.0 |
| 20260903155250 | 87 | 200 | 0.0 | 9.0 | 0.00 | 0.00 | 0.00 | 61 | 1010.0 |
| 20260903153750 | 87 | 167 | 3.0 | 11.0 | 0.00 | 0.00 | 0.00 | 60 | 1010.1 |
| 20260903152249 | 86 | 152 | 1.0 | 6.0 | 0.00 | 0.00 | 0.00 | 63 | 1010.0 |
| 20260903150748 | 85 | 183 | 1.0 | 7.0 | 0.00 | 0.00 | 0.00 | 63 | 1010.2 |
| 20260903145247 | 84 | 201 | 0.0 | 8.0 | 0.00 | 0.00 | 0.00 | 66 | 1010.3 |
| 20260903143746 | 83 | 91 | 4.0 | 12.0 | 0.00 | 0.00 | 0.00 | 67 | 1010.3 |
| 20260903142245 | 82 | 131 | 2.0 | 8.0 | 0.00 | 0.00 | 0.00 | 69 | 1010.3 |
| 20260903140744 | 81 | 126 | 1.0 | 7.0 | 0.00 | 0.00 | 0.00 | 70 | 1010.4 |
| 20260903135243 | 80 | 131 | 0.0 | 5.0 | 0.00 | 0.00 | 0.00 | 72 | 1010.5 |
| 20260903133742 | 78 | 114 | 2.0 | 6.0 | 0.00 | 0.00 | 0.00 | 74 | 1010.4 |
| 20260903132241 | 77 | 148 | 0.0 | 6.0 | 0.00 | 0.00 | 0.00 | 75 | 1010.4 |
| 20260903130740 | 76 | 129 | 0.0 | 6.0 | 0.00 | 0.00 | 0.00 | 76 | 1010.5 |
| 20260903125239 | 76 | 163 | 0.0 | 6.0 | 0.00 | 0.00 | 0.00 | 76 | 1010.4 |
| 20260903123738 | 76 | 197 | 0.0 | 5.0 | 0.00 | 0.00 | 0.00 | 76 | 1010.4 |
| 20260903122237 | 76 | 218 | 0.0 | 5.0 | 0.00 | 0.00 | 0.00 | 75 | 1010.2 |
| 20260903120736 | 76 | 158 | 0.0 | 4.0 | 0.00 | 0.00 | 0.00 | 75 | 1010.0 |
| 20260903115235 | 76 | 182 | 0.0 | 6.0 | 0.00 | 0.00 | 0.00 | 75 | 1009.9 |
| 20260903112233 | 76 | 145 | 0.0 | 3.0 | 0.00 | 0.00 | 0.00 | 73 | 1009.8 |
| 20260903103731 | 77 | 113 | 0.0 | 1.0 | 0.00 | 0.00 | 0.00 | 70 | 1009.9 |
| 20260903102229 | 77 | 160 | 0.0 | 1.0 | 0.00 | 0.00 | 0.00 | 69 | 1010.1 |
| 20260903100728 | 78 | 152 | 0.0 | 3.0 | 0.00 | 0.00 | 0.00 | 68 | 1010.0 |
| 20260903095227 | 78 | 172 | 0.0 | 6.0 | 0.00 | 0.00 | 0.00 | 67 | 1010.0 |
| 20260903093726 | 79 | 140 | 0.0 | 4.0 | 0.00 | 0.00 | 0.00 | 66 | 1009.9 |
| 20260903092225 | 79 | 158 | 0.0 | 4.0 | 0.00 | 0.00 | 0.00 | 64 | 1009.9 |
| 20260903090724 | 80 | 169 | 0.0 | 4.0 | 0.00 | 0.00 | 0.00 | 63 | 1009.8 |
| 20260903085223 | 80 | 160 | 0.0 | 4.0 | 0.00 | 0.00 | 0.00 | 63 | 1009.8 |
| 20260903083723 | 80 | 170 | 0.0 | 6.0 | 0.00 | 0.00 | 0.00 | 62 | 1009.8 |
| 20260903082222 | 80 | 237 | 0.0 | 5.0 | 0.00 | 0.00 | 0.00 | 61 | 1009.7 |
| 20260903080721 | 81 | 136 | 4.0 | 4.0 | 0.00 | 0.00 | 0.00 | 61 | 1009.5 |
| 20260903073719 | 81 | 146 | 0.0 | 4.0 | 0.00 | 0.00 | 0.00 | 59 | 1009.6 |
| 20260903072218 | 82 | 139 | 0.0 | 4.0 | 0.00 | 0.00 | 0.00 | 58 | 1009.5 |
| 20260903070717 | 82 | 166 | 2.0 | 3.0 | 0.00 | 0.00 | 0.00 | 57 | 1009.5 |
| 20260903065216 | 82 | 166 | 0.0 | 4.0 | 0.00 | 0.00 | 0.00 | 56 | 1009.5 |
| 20260903063715 | 82 | 152 | 0.0 | 5.0 | 0.00 | 0.00 | 0.00 | 56 | 1009.4 |
| 20260903062214 | 83 | 158 | 0.0 | 4.0 | 0.00 | 0.00 | 0.00 | 55 | 1009.3 |
| 20260903060713 | 84 | 210 | 0.0 | 5.0 | 0.00 | 0.00 | 0.00 | 54 | 1009.3 |
| 20260903055212 | 84 | 140 | 0.0 | 7.0 | 0.00 | 0.00 | 0.00 | 53 | 1009.2 |
| 20260903053711 | 84 | 129 | 2.0 | 5.0 | 0.00 | 0.00 | 0.00 | 53 | 1009.3 |
| 20260903052210 | 85 | 179 | 0.0 | 6.0 | 0.00 | 0.00 | 0.00 | 52 | 1009.3 |
| 20260903045208 | 86 | 148 | 0.0 | 5.0 | 0.00 | 0.00 | 0.00 | 50 | 1009.2 |
| 20260903043707 | 86 | 166 | 3.0 | 4.0 | 0.00 | 0.00 | 0.00 | 49 | 1009.2 |
| 20260903042206 | 87 | 140 | 0.0 | 6.0 | 0.00 | 0.00 | 0.00 | 48 | 1009.3 |
| 20260903040705 | 87 | 136 | 0.0 | 6.0 | 0.00 | 0.00 | 0.00 | 48 | 1009.3 |
| 20260903035205 | 88 | 136 | 0.0 | 7.0 | 0.00 | 0.00 | 0.00 | 48 | 1009.3 |
| 20260903033703 | 88 | 120 | 0.0 | 6.0 | 0.00 | 0.00 | 0.00 | 48 | 1009.2 |
| 20260903030701 | 88 | 140 | 0.0 | 6.0 | 0.00 | 0.00 | 0.00 | 48 | 1009.2 |
| 20260903025200 | 88 | 134 | 0.0 | 6.0 | 0.00 | 0.00 | 0.00 | 47 | 1009.0 |
| 20260903023659 | 89 | 166 | 0.0 | 5.0 | 0.00 | 0.00 | 0.00 | 47 | 1008.9 |
| 20260903022158 | 90 | 131 | 1.0 | 6.0 | 0.00 | 0.00 | 0.00 | 46 | 1008.8 |
| 20260903020658 | 90 | 150 | 0.0 | 5.0 | 0.00 | 0.00 | 0.00 | 45 | 1008.5 |
| 20260903015157 | 91 | 139 | 0.0 | 5.0 | 0.00 | 0.00 | 0.00 | 44 | 1008.4 |
| 20260903013656 | 92 | 147 | 0.0 | 6.0 | 0.00 | 0.00 | 0.00 | 44 | 1008.2 |
| 20260903012155 | 92 | 153 | 4.0 | 7.0 | 0.00 | 0.00 | 0.00 | 43 | 1008.0 |
| 20260903010654 | 93 | 125 | 4.0 | 6.0 | 0.00 | 0.00 | 0.00 | 42 | 1008.0 |
| 20260903005153 | 94 | 142 | 5.0 | 6.0 | 0.00 | 0.00 | 0.00 | 41 | 1007.9 |
| 20260903003652 | 95 | 132 | 2.0 | 6.0 | 0.00 | 0.00 | 0.00 | 39 | 1008.0 |
| 20260903002151 | 96 | 166 | 0.0 | 6.0 | 0.00 | 0.00 | 0.00 | 37 | 1007.8 |
| 20260903000650 | 97 | 143 | 0.0 | 9.0 | 0.00 | 0.00 | 0.00 | 36 | 1007.8 |
| 20260902233648 | 98 | 198 | 2.0 | 7.0 | 0.00 | 0.00 | 0.00 | 33 | 1007.8 |
| 20260902232147 | 99 | 142 | 2.0 | 7.0 | 0.00 | 0.00 | 0.00 | 33 | 1007.9 |
| 20260902230646 | 100 | 124 | 3.0 | 7.0 | 0.00 | 0.00 | 0.00 | 32 | 1008.0 |
| 20260902225145 | 100 | 207 | 0.0 | 6.0 | 0.00 | 0.00 | 0.00 | 32 | 1007.9 |
| 20260902222143 | 101 | 166 | 0.0 | 12.0 | 0.00 | 0.00 | 0.00 | 32 | 1008.1 |
| 20260902220642 | 101 | 165 | 0.0 | 6.0 | 0.00 | 0.00 | 0.00 | 31 | 1008.2 |
| 20260902215141 | 101 | 150 | 4.0 | 7.0 | 0.00 | 0.00 | 0.00 | 31 | 1008.3 |
| 20260902213640 | 101 | 180 | 5.0 | 11.0 | 0.00 | 0.00 | 0.00 | 31 | 1008.4 |
| 20260902212140 | 101 | 129 | 1.0 | 8.0 | 0.00 | 0.00 | 0.00 | 32 | 1008.6 |
| 20260902210639 | 101 | 140 | 6.0 | 13.0 | 0.00 | 0.00 | 0.00 | 32 | 1008.8 |
| 20260902205137 | 102 | 170 | 0.0 | 6.0 | 0.00 | 0.00 | 0.00 | 32 | 1009.0 |
| 20260902203637 | 102 | 110 | 3.0 | 10.0 | 0.00 | 0.00 | 0.00 | 33 | 1009.2 |
| 20260902202136 | 102 | 132 | 4.0 | 8.0 | 0.00 | 0.00 | 0.00 | 32 | 1009.4 |
| 20260902195133 | 101 | 169 | 2.0 | 12.0 | 0.00 | 0.00 | 0.00 | 34 | 1009.8 |
| 20260902192132 | 101 | 170 | 0.0 | 6.0 | 0.00 | 0.00 | 0.00 | 34 | 1010.1 |
| 20260902190631 | 100 | 132 | 0.0 | 7.0 | 0.00 | 0.00 | 0.00 | 35 | 1010.2 |
| 20260902185130 | 100 | 238 | 0.0 | 9.0 | 0.00 | 0.00 | 0.00 | 35 | 1010.6 |
| 20260902183629 | 100 | 208 | 6.0 | 12.0 | 0.00 | 0.00 | 0.00 | 35 | 1010.8 |